User: anonymous   Login
Location: Balaclava NSW 2575, Australia
(34.4510°S, 150.4953°E)
Time: 11:23:58
(UTC+10:00)
Language:

PRISM - Orbit

View from above orbital plane
View from above orbital plane
View from above satellite
View from above satellite

Ground track
Ground track

The orbit data is extracted from the following two-line orbital elements,

1 33493U 09002B   21216.36430498  .00000641  00000-0  60079-4 0  9999
2 33493  98.1908 181.2276 0015716 126.1348 234.1329 14.97755042681497
Epoch (UTC): 04 August 2021 08:44:35
Eccentricity: 0.0015716
inclination: 98.1908°
perigee height: 563 km
apogee height: 585 km
right ascension of ascending node: 181.2276°
argument of perigee: 126.1348°
revolutions per day: 14.97755042
mean anomaly at epoch: 234.1329°
orbit number at epoch: 68149

The dashed part of the orbit path shows where the satellite is in the earth's shadow,  

DLR